Location: Chircca
(13.7944°S, 72.0608°W)
Time: 06:14:40
(UTC+00:00)

ATLAS 5 CENTAUR R/B - Pass Details

Date: 14 July 2020
Orbit: 534 x 1124 km, 63.4° (Epoch: 09 August)

Event Time Altitude Azimuth Distance (km) Brightness Sun altitude
Rises 10:22:48 0° 327° (NNW) 3,866 5.5 -12.2°
Reaches altitude 10° 10:25:28 10° 323° (NW) 2,952 4.8 -11.6°
Maximum altitude 10:32:30 58° 245° (WSW) 1,290 2.8 -10.0°
Drops below altitude 10° 10:39:34 10° 166° (SSE) 2,953 5.0 -8.4°
Sets 10:42:15 0° 162° (SSE) 3,867 5.6 -7.7°
